Hong Xiang 2 — BYBA — position and weather

sailwx.info

Track history (hours):
 
Tides and Currents Weather Stations Pressure Air Temp Water Temp Dewpoint Dewpoint Depression Visibility Wind Speed Wind Dir Waves Ship Positions

Hong Xiang 2

Last reported at 2014-Oct-26 01:12 UTC. Time now 2014-Oct-26 03:47 UTC.
Position N 21°59' E 113°41'.

Length 96 m; draft 4.5 m.

Type: Ship (hazmat cat A). MMSI: 413413000.

Date/timePositionNaut miles runAvg speedWind from/ knotsBaromVisibWave heightAir tempDewpointWater temp
2014-Oct-26 01:12N 21°59' E 113°41'0 0.0
2014-Oct-26 00:33N 21°59' E 113°41'0 0.0
2014-Oct-25 23:33N 21°59' E 113°41'0 0.0
2014-Oct-25 22:33N 21°59' E 113°41'0 0.0
2014-Oct-25 21:31N 21°59' E 113°41'0 0.0
2014-Oct-25 20:33N 21°59' E 113°41'4 0.5
2014-Oct-25 12:33N 22°01' E 113°45'10 9.6
2014-Oct-25 11:33N 22°11' E 113°45'10 9.7
2014-Oct-25 10:32N 22°20' E 113°48'2311.6
2014-Oct-25 08:31N 22°43' E 113°40'1111.1
2014-Oct-25 07:32N 22°52' E 113°34'5 0.2
2014-Oct-24 10:31N 22°57' E 113°33'6 6.0
2014-Oct-24 09:33N 22°51' E 113°34'8 8.1
2014-Oct-24 08:30N 22°44' E 113°40'17 8.8
2014-Oct-24 06:33N 22°28' E 113°45'9 8.9
2014-Oct-24 05:33N 22°19' E 113°48'9 9.1
2014-Oct-24 04:33N 22°10' E 113°46'10 9.8
2014-Oct-24 03:33N 22°01' E 113°44'220 8.2
2014-Oct-23 00:33N 20°11' E 110°20'72 9.9
2014-Oct-22 17:17N 19°49' E 109°07'4 5.8
2014-Oct-22 16:33N 19°46' E 109°10'0 0.0
2014-Oct-22 06:33N 19°46' E 109°10'0 0.0
2014-Oct-22 03:13N 19°46' E 109°10'3 4.1
2014-Oct-22 02:33N 19°43' E 109°08'0 0.1
2014-Oct-22 01:33N 19°43' E 109°08'0 0.0
2014-Oct-22 00:32N 19°43' E 109°08'0 0.0
2014-Oct-21 23:33N 19°43' E 109°08'0 0.0
2014-Oct-21 22:33N 19°43' E 109°08'0 0.0
2014-Oct-21 21:33N 19°43' E 109°08'0 0.0
2014-Oct-21 20:31N 19°43' E 109°08'0 0.0
2014-Oct-21 19:33N 19°43' E 109°08'0 0.0
2014-Oct-21 18:33N 19°43' E 109°08'0 0.0
2014-Oct-21 17:25N 19°43' E 109°08'0 0.0
2014-Oct-21 16:33N 19°43' E 109°08'0 0.0
2014-Oct-21 15:33N 19°43' E 109°08'0 0.0
2014-Oct-21 14:33N 19°43' E 109°08'0 0.0
2014-Oct-21 13:33N 19°43' E 109°08'0 0.0
2014-Oct-21 12:32N 19°43' E 109°08'0 0.0
2014-Oct-21 11:33N 19°43' E 109°08'0 0.1
2014-Oct-21 10:33N 19°43' E 109°08'0 0.0
2014-Oct-21 09:03N 19°43' E 109°08'0 0.0
2014-Oct-21 08:30N 19°43' E 109°08'0 0.0
2014-Oct-21 07:33N 19°43' E 109°08'0 0.0
2014-Oct-21 06:33N 19°43' E 109°08'0 0.1
2014-Oct-21 05:33N 19°43' E 109°08'0 0.1
2014-Oct-21 04:33N 19°43' E 109°08'0 0.1
2014-Oct-21 03:33N 19°43' E 109°08'0 0.0
2014-Oct-21 02:33N 19°43' E 109°08'0 0.0
2014-Oct-21 01:33N 19°43' E 109°08'0 0.1
2014-Oct-21 00:33N 19°43' E 109°08'0 0.0
2014-Oct-20 23:33N 19°43' E 109°08'0 0.1
2014-Oct-20 22:33N 19°43' E 109°08'0 0.0
2014-Oct-20 21:33N 19°43' E 109°08'0 0.0
2014-Oct-20 20:33N 19°43' E 109°08'0 0.1
2014-Oct-20 19:33N 19°43' E 109°08'0 0.0
2014-Oct-20 18:33N 19°43' E 109°08'0 0.0
2014-Oct-20 17:32N 19°43' E 109°08'0 0.0
2014-Oct-20 16:32N 19°43' E 109°08'0 0.0
2014-Oct-20 15:33N 19°43' E 109°08'0 0.0
2014-Oct-20 14:33N 19°43' E 109°08'0 0.0
2014-Oct-20 13:27N 19°43' E 109°08'0 0.0
2014-Oct-20 12:33N 19°43' E 109°08'72 9.0
2014-Oct-20 04:33N 20°12' E 110°19'21310.6
2014-Oct-19 08:31N 21°57' E 113°37'10 9.9
2014-Oct-19 07:33N 22°03' E 113°45'1010.4
2014-Oct-19 06:33N 22°14' E 113°47'1010.2
2014-Oct-19 05:33N 22°24' E 113°46'2211.2
2014-Oct-19 03:33N 22°45' E 113°39'1010.1
2014-Oct-19 02:33N 22°54' E 113°34'1 0.1
2014-Oct-18 09:33N 22°55' E 113°33'9 8.2
2014-Oct-18 08:30N 22°47' E 113°37'9 7.7
2014-Oct-18 07:21N 22°39' E 113°41'9 9.7
2014-Oct-18 06:22N 22°31' E 113°45'8 9.3
2014-Oct-18 05:33N 22°23' E 113°46'9 8.8
2014-Oct-18 04:33N 22°14' E 113°48'9 8.6
2014-Oct-18 03:33N 22°06' E 113°45'8 7.9
2014-Oct-18 02:33N 21°59' E 113°42'0 0.2
2014-Oct-18 01:32N 21°59' E 113°42'0 0.0
2014-Oct-18 00:08N 21°59' E 113°42'0 0.1
2014-Oct-17 23:33N 21°59' E 113°42'27 8.7
2014-Oct-17 20:23N 21°45' E 113°16'189 7.6
2014-Oct-16 19:33N 20°10' E 110°21'7 7.3
2014-Oct-16 18:33N 20°09' E 110°13'63 7.7
2014-Oct-16 10:27N 19°52' E 109°09'7 7.9
2014-Oct-16 09:33N 19°45' E 109°09'1 0.3
2014-Oct-16 06:18N 19°46' E 109°10'0 0.0
2014-Oct-16 04:30N 19°46' E 109°10'0 0.0
2014-Oct-16 03:24N 19°46' E 109°10'  
Track history (hours):
 
Tides and Currents Weather Stations Pressure Air Temp Water Temp Dewpoint Dewpoint Depression Visibility Wind Speed Wind Dir Waves Ship Positions

Hong Xiang 2

Last reported at 2014-Oct-26 01:12 UTC. Time now 2014-Oct-26 03:47 UTC.
Position N 21°59' E 113°41'.

Length 96 m; draft 4.5 m.

Type: Ship (hazmat cat A). MMSI: 413413000.

Date/timePositionNaut miles runAvg speedWind from/ knotsBaromVisibWave heightAir tempDewpointWater temp
2014-Oct-26 01:12N 21°59' E 113°41'0 0.0
2014-Oct-26 00:33N 21°59' E 113°41'0 0.0
2014-Oct-25 23:33N 21°59' E 113°41'0 0.0
2014-Oct-25 22:33N 21°59' E 113°41'0 0.0
2014-Oct-25 21:31N 21°59' E 113°41'0 0.0
2014-Oct-25 20:33N 21°59' E 113°41'4 0.5
2014-Oct-25 12:33N 22°01' E 113°45'10 9.6
2014-Oct-25 11:33N 22°11' E 113°45'10 9.7
2014-Oct-25 10:32N 22°20' E 113°48'2311.6
2014-Oct-25 08:31N 22°43' E 113°40'1111.1
2014-Oct-25 07:32N 22°52' E 113°34'5 0.2
2014-Oct-24 10:31N 22°57' E 113°33'6 6.0
2014-Oct-24 09:33N 22°51' E 113°34'8 8.1
2014-Oct-24 08:30N 22°44' E 113°40'17 8.8
2014-Oct-24 06:33N 22°28' E 113°45'9 8.9
2014-Oct-24 05:33N 22°19' E 113°48'9 9.1
2014-Oct-24 04:33N 22°10' E 113°46'10 9.8
2014-Oct-24 03:33N 22°01' E 113°44'220 8.2
2014-Oct-23 00:33N 20°11' E 110°20'72 9.9
2014-Oct-22 17:17N 19°49' E 109°07'4 5.8
2014-Oct-22 16:33N 19°46' E 109°10'0 0.0
2014-Oct-22 06:33N 19°46' E 109°10'0 0.0
2014-Oct-22 03:13N 19°46' E 109°10'3 4.1
2014-Oct-22 02:33N 19°43' E 109°08'0 0.1
2014-Oct-22 01:33N 19°43' E 109°08'0 0.0
2014-Oct-22 00:32N 19°43' E 109°08'0 0.0
2014-Oct-21 23:33N 19°43' E 109°08'0 0.0
2014-Oct-21 22:33N 19°43' E 109°08'0 0.0
2014-Oct-21 21:33N 19°43' E 109°08'0 0.0
2014-Oct-21 20:31N 19°43' E 109°08'0 0.0
2014-Oct-21 19:33N 19°43' E 109°08'0 0.0
2014-Oct-21 18:33N 19°43' E 109°08'0 0.0
2014-Oct-21 17:25N 19°43' E 109°08'0 0.0
2014-Oct-21 16:33N 19°43' E 109°08'0 0.0
2014-Oct-21 15:33N 19°43' E 109°08'0 0.0
2014-Oct-21 14:33N 19°43' E 109°08'0 0.0
2014-Oct-21 13:33N 19°43' E 109°08'0 0.0
2014-Oct-21 12:32N 19°43' E 109°08'0 0.0
2014-Oct-21 11:33N 19°43' E 109°08'0 0.1
2014-Oct-21 10:33N 19°43' E 109°08'0 0.0
2014-Oct-21 09:03N 19°43' E 109°08'0 0.0
2014-Oct-21 08:30N 19°43' E 109°08'0 0.0
2014-Oct-21 07:33N 19°43' E 109°08'0 0.0
2014-Oct-21 06:33N 19°43' E 109°08'0 0.1
2014-Oct-21 05:33N 19°43' E 109°08'0 0.1
2014-Oct-21 04:33N 19°43' E 109°08'0 0.1
2014-Oct-21 03:33N 19°43' E 109°08'0 0.0
2014-Oct-21 02:33N 19°43' E 109°08'0 0.0
2014-Oct-21 01:33N 19°43' E 109°08'0 0.1
2014-Oct-21 00:33N 19°43' E 109°08'0 0.0
2014-Oct-20 23:33N 19°43' E 109°08'0 0.1
2014-Oct-20 22:33N 19°43' E 109°08'0 0.0
2014-Oct-20 21:33N 19°43' E 109°08'0 0.0
2014-Oct-20 20:33N 19°43' E 109°08'0 0.1
2014-Oct-20 19:33N 19°43' E 109°08'0 0.0
2014-Oct-20 18:33N 19°43' E 109°08'0 0.0
2014-Oct-20 17:32N 19°43' E 109°08'0 0.0
2014-Oct-20 16:32N 19°43' E 109°08'0 0.0
2014-Oct-20 15:33N 19°43' E 109°08'0 0.0
2014-Oct-20 14:33N 19°43' E 109°08'0 0.0
2014-Oct-20 13:27N 19°43' E 109°08'0 0.0
2014-Oct-20 12:33N 19°43' E 109°08'72 9.0
2014-Oct-20 04:33N 20°12' E 110°19'21310.6
2014-Oct-19 08:31N 21°57' E 113°37'10 9.9
2014-Oct-19 07:33N 22°03' E 113°45'1010.4
2014-Oct-19 06:33N 22°14' E 113°47'1010.2
2014-Oct-19 05:33N 22°24' E 113°46'2211.2
2014-Oct-19 03:33N 22°45' E 113°39'1010.1
2014-Oct-19 02:33N 22°54' E 113°34'1 0.1
2014-Oct-18 09:33N 22°55' E 113°33'9 8.2
2014-Oct-18 08:30N 22°47' E 113°37'9 7.7
2014-Oct-18 07:21N 22°39' E 113°41'9 9.7
2014-Oct-18 06:22N 22°31' E 113°45'8 9.3
2014-Oct-18 05:33N 22°23' E 113°46'9 8.8
2014-Oct-18 04:33N 22°14' E 113°48'9 8.6
2014-Oct-18 03:33N 22°06' E 113°45'8 7.9
2014-Oct-18 02:33N 21°59' E 113°42'0 0.2
2014-Oct-18 01:32N 21°59' E 113°42'0 0.0
2014-Oct-18 00:08N 21°59' E 113°42'0 0.1
2014-Oct-17 23:33N 21°59' E 113°42'27 8.7
2014-Oct-17 20:23N 21°45' E 113°16'189 7.6
2014-Oct-16 19:33N 20°10' E 110°21'7 7.3
2014-Oct-16 18:33N 20°09' E 110°13'63 7.7
2014-Oct-16 10:27N 19°52' E 109°09'7 7.9
2014-Oct-16 09:33N 19°45' E 109°09'1 0.3
2014-Oct-16 06:18N 19°46' E 109°10'0 0.0
2014-Oct-16 04:30N 19°46' E 109°10'0 0.0
2014-Oct-16 03:24N 19°46' E 109°10'  

Dump ship's entire track history